TimePDT,TemperatureF,Dew PointF,Humidity,Sea Level PressureIn,VisibilityMPH,Wind Direction,Wind SpeedMPH,Gust SpeedMPH,PrecipitationIn,Events,Conditions,WindDirDegrees,DateUTC
12:53 AM,66.9,46.0,47,29.77,10.0,NW,19.6,26.5,N/A,,Clear,310,2013-04-25 07:53:00
1:53 AM,66.9,44.1,44,29.76,10.0,NW,12.7,19.6,N/A,,Clear,310,2013-04-25 08:53:00
2:53 AM,66.9,43.0,42,29.75,10.0,WNW,10.4,21.9,N/A,,Clear,300,2013-04-25 09:53:00
3:53 AM,66.0,43.0,43,29.76,10.0,NW,17.3,23.0,N/A,,Clear,320,2013-04-25 10:53:00
4:53 AM,66.0,42.1,42,29.77,10.0,WNW,8.1,-,N/A,,Clear,300,2013-04-25 11:53:00
5:53 AM,62.1,46.9,58,29.80,10.0,SE,5.8,-,N/A,,Clear,130,2013-04-25 12:53:00
6:53 AM,62.1,46.0,56,29.83,10.0,Calm,Calm,-,N/A,,Partly Cloudy,0,2013-04-25 13:53:00
7:53 AM,69.1,42.1,38,29.85,10.0,NW,9.2,-,N/A,,Clear,310,2013-04-25 14:53:00
8:53 AM,70.0,43.0,38,29.87,10.0,NW,19.6,27.6,N/A,,Clear,320,2013-04-25 15:53:00
9:53 AM,73.0,42.1,33,29.88,10.0,NW,18.4,23.0,N/A,,Clear,320,2013-04-25 16:53:00
10:53 AM,75.9,42.1,30,29.89,10.0,NW,18.4,26.5,N/A,,Clear,320,2013-04-25 17:53:00
11:53 AM,78.1,42.1,28,29.89,10.0,NW,20.7,26.5,N/A,,Partly Cloudy,320,2013-04-25 18:53:00
12:53 PM,81.0,41.0,24,29.88,10.0,NW,13.8,21.9,N/A,,Clear,320,2013-04-25 19:53:00
1:53 PM,81.0,42.1,25,29.87,10.0,NW,18.4,25.3,N/A,,Partly Cloudy,320,2013-04-25 20:53:00
2:53 PM,82.0,42.1,24,29.86,10.0,NNW,21.9,28.8,N/A,,Clear,330,2013-04-25 21:53:00
3:53 PM,81.0,44.1,27,29.85,10.0,NW,15.0,26.5,N/A,,Clear,310,2013-04-25 22:53:00
4:53 PM,81.0,44.1,27,29.86,10.0,NW,17.3,25.3,N/A,,Clear,320,2013-04-25 23:53:00
5:53 PM,80.1,44.1,28,29.87,10.0,NW,11.5,21.9,N/A,,Clear,310,2013-04-26 00:53:00
6:53 PM,78.1,45.0,31,29.87,10.0,NW,15.0,-,N/A,,Clear,320,2013-04-26 01:53:00
7:53 PM,75.0,45.0,34,29.88,10.0,NW,16.1,-,N/A,,Clear,320,2013-04-26 02:53:00
8:53 PM,73.9,44.1,34,29.92,10.0,NW,16.1,-,N/A,,Clear,320,2013-04-26 03:53:00
9:53 PM,73.9,44.1,34,29.94,10.0,NW,8.1,-,N/A,,Clear,320,2013-04-26 04:53:00
10:53 PM,72.0,46.0,40,29.96,10.0,NW,13.8,-,N/A,,Clear,310,2013-04-26 05:53:00
11:53 PM,70.0,44.1,39,29.96,10.0,NW,12.7,-,N/A,,Clear,320,2013-04-26 06:53:00